Location: Oroua River
(40.4333°S, 175.4333°E)
Time: 05:58:17
(UTC+00:00)

NOAA 16 DEB - Visible Passes

Search period start: 21 February 2024 00:00
Search period end: 02 March 2024 00:00
Orbit: 770 x 805 km, 99.0° (Epoch: 19 February)

Date Brightness Start Highest point End Pass type
(mag) Time Alt. Az. Time Alt. Az. Time Alt. Az.
21 Feb ? 14:00:01 10° SE 14:03:18 27° ESE 14:03:18 27° ESE visible
21 Feb ? 15:39:19 10° S 15:43:52 32° WSW 15:43:58 32° WSW visible
22 Feb ? 13:30:59 10° SE 13:32:35 14° ESE 13:32:35 14° ESE visible
22 Feb ? 15:08:42 10° S 15:13:15 57° SW 15:13:15 57° SW visible
23 Feb ? 14:38:24 10° SSE 14:42:30 54° SE 14:42:30 54° SE visible
23 Feb ? 16:19:26 10° SSW 16:22:20 15° WSW 16:23:09 15° WSW visible
24 Feb ? 14:08:24 10° SSE 14:11:43 30° ESE 14:11:43 30° ESE visible
24 Feb ? 15:48:03 10° S 15:52:22 28° WSW 15:52:22 28° WSW visible
25 Feb ? 13:39:00 10° SE 13:40:54 16° ESE 13:40:54 16° ESE visible
25 Feb ? 15:17:13 10° S 15:21:33 48° SW 15:21:33 48° SW visible
26 Feb ? 14:46:43 10° SSE 14:50:41 53° SSE 14:50:41 53° SSE visible
26 Feb ? 16:28:18 10° SSW 16:30:34 13° WSW 16:31:21 13° WSW visible
27 Feb ? 14:16:32 10° SSE 14:19:48 33° SE 14:19:48 33° SE visible
27 Feb ? 15:56:30 10° SSW 16:00:27 24° WSW 16:00:27 24° WSW visible
28 Feb ? 13:46:50 10° SE 13:48:53 18° ESE 13:48:53 18° ESE visible
28 Feb ? 15:25:27 10° S 15:29:32 40° SW 15:29:32 40° SW visible
29 Feb ? 14:54:46 10° SSE 14:58:34 50° S 14:58:34 50° S visible
29 Feb ? 16:37:06 10° SW 16:38:30 11° WSW 16:39:13 11° WSW visible
01 Mar ? 14:24:23 10° SSE 14:27:35 34° SE 14:27:35 34° SE visible
01 Mar ? 16:04:39 10° SSW 16:08:13 21° WSW 16:08:13 21° WSW visible
